Year,Month,Day,Hour,Minute,Value (Times are PST for temperature in C)
2010,05,20,07,49,8.70
2010,05,20,07,50,8.70
2010,05,20,07,51,8.70
2010,05,20,07,52,8.80
2010,05,20,07,53,8.80
2010,05,20,07,54,8.90
2010,05,20,07,55,9.00
2010,05,20,07,56,9.10
2010,05,20,07,57,9.10
2010,05,20,07,58,9.10
2010,05,20,07,59,9.20
2010,05,20,08,00,9.20
2010,05,20,08,01,9.20
2010,05,20,08,02,9.30
2010,05,20,08,03,9.30
2010,05,20,08,04,9.30
2010,05,20,08,05,9.30
2010,05,20,08,06,9.30
2010,05,20,08,07,9.40
2010,05,20,08,08,9.40
2010,05,20,08,09,9.40
2010,05,20,08,10,9.50
2010,05,20,08,11,9.50
2010,05,20,08,12,9.50
2010,05,20,08,13,9.40
2010,05,20,08,14,9.40
2010,05,20,08,15,9.40
2010,05,20,08,16,9.40
2010,05,20,08,17,9.40
2010,05,20,08,18,9.40
2010,05,20,08,19,9.40
2010,05,20,08,20,9.50
2010,05,20,08,21,9.50
2010,05,20,08,22,9.60
2010,05,20,08,23,9.60
2010,05,20,08,24,9.60
2010,05,20,08,25,9.60
2010,05,20,08,26,9.50
2010,05,20,08,27,9.50
2010,05,20,08,28,9.40
2010,05,20,08,29,9.20
2010,05,20,08,30,9.10
2010,05,20,08,31,9.00
2010,05,20,08,32,8.90
2010,05,20,08,33,8.70
2010,05,20,08,34,8.60
2010,05,20,08,35,8.40
2010,05,20,08,36,8.30
2010,05,20,08,37,8.20
2010,05,20,08,38,8.20
2010,05,20,08,39,8.00
2010,05,20,08,40,8.00
2010,05,20,08,41,8.00
2010,05,20,08,42,8.00
2010,05,20,08,43,8.00
2010,05,20,08,44,8.00
2010,05,20,08,45,8.00
2010,05,20,08,46,8.10
2010,05,20,08,47,8.20
2010,05,20,08,48,8.20
2010,05,20,08,49,8.20
2010,05,20,08,50,8.20
2010,05,20,08,51,8.20
2010,05,20,08,52,8.20
2010,05,20,08,53,8.20
2010,05,20,08,54,8.30
2010,05,20,08,55,8.40
2010,05,20,08,56,8.50
2010,05,20,08,57,8.60
2010,05,20,08,58,8.70
2010,05,20,08,59,8.70
2010,05,20,09,00,8.70
2010,05,20,09,01,8.80
2010,05,20,09,02,8.90
2010,05,20,09,03,8.90
2010,05,20,09,04,9.00
2010,05,20,09,05,9.10
2010,05,20,09,06,9.10
2010,05,20,09,07,9.20
2010,05,20,09,08,9.20
2010,05,20,09,09,9.20
2010,05,20,09,10,9.20
2010,05,20,09,11,9.10
2010,05,20,09,12,9.00
2010,05,20,09,13,9.00
2010,05,20,09,14,9.00
2010,05,20,09,15,8.90
2010,05,20,09,16,8.90
2010,05,20,09,17,8.90
2010,05,20,09,18,9.00
2010,05,20,09,19,9.00
2010,05,20,09,20,9.10
2010,05,20,09,21,9.10
2010,05,20,09,22,9.20
2010,05,20,09,23,9.20
2010,05,20,09,24,9.20
2010,05,20,09,25,9.20
2010,05,20,09,26,9.20
2010,05,20,09,27,9.20
2010,05,20,09,28,9.20
2010,05,20,09,29,9.10
2010,05,20,09,30,9.10
2010,05,20,09,31,9.00
2010,05,20,09,32,9.00
2010,05,20,09,33,9.00
2010,05,20,09,34,8.90
2010,05,20,09,35,8.90
2010,05,20,09,36,8.90
2010,05,20,09,37,8.90
2010,05,20,09,38,8.80
2010,05,20,09,39,8.80
2010,05,20,09,40,8.80
2010,05,20,09,41,8.80
2010,05,20,09,42,8.80
2010,05,20,09,43,8.80
2010,05,20,09,44,8.80
2010,05,20,09,45,8.90
2010,05,20,09,46,8.90
2010,05,20,09,47,9.00
2010,05,20,09,48,9.00
2010,05,20,09,49,9.10
2010,05,20,09,50,9.10
2010,05,20,09,51,9.20
2010,05,20,09,52,9.20
2010,05,20,09,53,9.20
2010,05,20,09,54,9.20
2010,05,20,09,55,9.20
2010,05,20,09,56,9.30
2010,05,20,09,57,9.30
2010,05,20,09,58,9.20
2010,05,20,09,59,9.20
2010,05,20,10,00,9.20
2010,05,20,10,01,9.20
2010,05,20,10,02,9.20
2010,05,20,10,03,9.20
2010,05,20,10,04,9.30
2010,05,20,10,05,9.30
2010,05,20,10,06,9.30
2010,05,20,10,07,9.30
2010,05,20,10,08,9.30
2010,05,20,10,09,9.30
2010,05,20,10,10,9.30
2010,05,20,10,11,9.40
2010,05,20,10,12,9.40
2010,05,20,10,13,9.50
2010,05,20,10,14,9.50
2010,05,20,10,15,9.50
2010,05,20,10,16,9.60
2010,05,20,10,17,9.70
2010,05,20,10,18,9.70
2010,05,20,10,19,9.90
2010,05,20,10,20,10.00
2010,05,20,10,21,10.10
2010,05,20,10,22,10.10
2010,05,20,10,23,10.20
2010,05,20,10,24,10.20
2010,05,20,10,25,10.10
2010,05,20,10,26,10.10
2010,05,20,10,27,10.10
2010,05,20,10,28,10.20
2010,05,20,10,29,10.30
2010,05,20,10,30,10.40
2010,05,20,10,31,10.60
2010,05,20,10,32,10.60
2010,05,20,10,33,10.60
2010,05,20,10,34,10.70
2010,05,20,10,35,10.80
2010,05,20,10,36,10.80
2010,05,20,10,37,10.90
2010,05,20,10,38,10.90
2010,05,20,10,39,10.90
2010,05,20,10,40,10.90
2010,05,20,10,41,10.90
2010,05,20,10,42,10.90
2010,05,20,10,43,11.00
2010,05,20,10,44,11.00
2010,05,20,10,45,10.90
2010,05,20,10,46,10.90
2010,05,20,10,47,10.90
2010,05,20,10,48,10.80
2010,05,20,10,49,10.80
2010,05,20,10,50,10.80
2010,05,20,10,51,10.80
2010,05,20,10,52,10.90
2010,05,20,10,53,10.90
2010,05,20,10,54,10.90
2010,05,20,10,55,10.80
2010,05,20,10,56,10.80
2010,05,20,10,57,10.80
2010,05,20,10,58,10.90
2010,05,20,10,59,10.90
2010,05,20,11,00,10.90
2010,05,20,11,01,11.00
2010,05,20,11,02,11.00
2010,05,20,11,03,10.90
2010,05,20,11,04,11.00
2010,05,20,11,05,10.90
2010,05,20,11,06,11.00
2010,05,20,11,07,11.10
2010,05,20,11,08,11.10
2010,05,20,11,09,11.20
2010,05,20,11,10,11.30
2010,05,20,11,11,11.30
2010,05,20,11,12,11.20
2010,05,20,11,13,11.20
2010,05,20,11,14,11.10
2010,05,20,11,15,11.10
2010,05,20,11,16,11.10
2010,05,20,11,17,11.00
2010,05,20,11,18,10.90
2010,05,20,11,19,11.00
2010,05,20,11,20,10.90
2010,05,20,11,21,10.90
2010,05,20,11,22,10.90
2010,05,20,11,23,10.90
2010,05,20,11,24,10.90
2010,05,20,11,25,10.90
2010,05,20,11,26,10.90
2010,05,20,11,27,10.90
2010,05,20,11,28,11.00
2010,05,20,11,29,11.10
2010,05,20,11,30,11.10
2010,05,20,11,31,11.30
2010,05,20,11,32,11.40
2010,05,20,11,33,11.40
2010,05,20,11,34,11.40
2010,05,20,11,35,11.40
2010,05,20,11,36,11.40
2010,05,20,12,00,11.00
2010,05,20,12,01,10.90
2010,05,20,12,02,10.90
2010,05,20,12,03,10.90
2010,05,20,12,04,10.90
2010,05,20,12,05,10.90
2010,05,20,12,06,11.10
2010,05,20,12,07,11.10
2010,05,20,12,08,11.20
2010,05,20,12,09,11.30
2010,05,20,12,10,11.30
2010,05,20,12,11,11.30
2010,05,20,12,12,11.30
2010,05,20,12,13,11.40
2010,05,20,12,14,11.40
2010,05,20,12,15,11.30
2010,05,20,12,16,11.30
2010,05,20,12,17,11.40
2010,05,20,12,18,11.30
2010,05,20,12,19,11.30
2010,05,20,12,20,11.30
2010,05,20,12,21,11.40
2010,05,20,12,22,11.40
2010,05,20,12,23,11.40
2010,05,20,12,24,11.40
2010,05,20,12,25,11.40
2010,05,20,12,26,11.40
2010,05,20,12,27,11.40
2010,05,20,12,28,11.40
2010,05,20,12,29,11.40
2010,05,20,12,30,11.30
2010,05,20,12,31,11.30
2010,05,20,12,32,11.40
2010,05,20,12,33,11.30
2010,05,20,12,34,11.30
2010,05,20,12,35,11.30
2010,05,20,12,36,11.40
2010,05,20,12,37,11.60
2010,05,20,12,38,11.60
2010,05,20,12,39,11.60
2010,05,20,12,40,11.50
2010,05,20,12,41,11.30
2010,05,20,12,42,11.20
2010,05,20,12,43,11.30
2010,05,20,12,44,11.40
2010,05,20,12,45,11.40
2010,05,20,12,46,11.60
2010,05,20,12,47,11.60
2010,05,20,12,48,11.70
2010,05,20,12,49,11.60
2010,05,20,12,50,11.60
2010,05,20,12,51,11.60
2010,05,20,12,52,11.60
2010,05,20,12,53,11.50
2010,05,20,12,54,11.40
2010,05,20,12,55,11.30
2010,05,20,12,56,11.30
2010,05,20,12,57,11.30
2010,05,20,12,58,11.40
2010,05,20,12,59,11.40
2010,05,20,13,00,11.50
2010,05,20,13,01,11.60
2010,05,20,13,02,11.60
2010,05,20,13,03,11.70
2010,05,20,13,04,11.60
2010,05,20,13,05,11.70
2010,05,20,13,06,11.80
2010,05,20,13,07,11.80
2010,05,20,13,08,11.90
2010,05,20,13,09,12.00
2010,05,20,13,10,12.00
2010,05,20,13,11,12.00
2010,05,20,13,12,12.00
2010,05,20,13,13,12.10
2010,05,20,13,14,12.10
2010,05,20,13,15,12.20
2010,05,20,13,16,12.20
2010,05,20,13,17,12.00
2010,05,20,13,18,11.90
2010,05,20,13,19,11.70
2010,05,20,13,20,11.60
2010,05,20,13,21,11.50
2010,05,20,13,22,11.30
2010,05,20,13,23,11.10
2010,05,20,13,24,11.10
2010,05,20,13,25,11.10
2010,05,20,13,26,11.10
2010,05,20,13,27,11.20
2010,05,20,13,28,11.30
2010,05,20,13,29,11.50
2010,05,20,13,30,11.60
2010,05,20,13,31,11.70
2010,05,20,13,32,11.80
2010,05,20,13,33,11.80
2010,05,20,13,34,11.70
2010,05,20,13,35,11.60
2010,05,20,13,36,11.60
2010,05,20,13,37,11.60
2010,05,20,13,38,11.50
2010,05,20,13,39,11.40
2010,05,20,13,40,11.40
2010,05,20,13,41,11.50
2010,05,20,13,42,11.50
2010,05,20,13,43,11.40
2010,05,20,13,44,11.40
2010,05,20,13,45,11.40
2010,05,20,13,46,11.50
2010,05,20,13,47,11.60
2010,05,20,13,48,11.50
2010,05,20,13,49,11.50
2010,05,20,13,50,11.60
2010,05,20,13,51,11.60
2010,05,20,13,52,11.70
2010,05,20,13,53,11.60
2010,05,20,13,54,11.70
2010,05,20,13,55,11.80
2010,05,20,13,56,11.80
2010,05,20,13,57,12.00
2010,05,20,13,58,12.10
2010,05,20,13,59,12.30
2010,05,20,14,00,12.60
2010,05,20,14,01,12.80
2010,05,20,14,02,12.80
2010,05,20,14,03,12.80
2010,05,20,14,04,12.60
2010,05,20,14,05,12.50
2010,05,20,14,06,12.50
2010,05,20,14,07,12.40
2010,05,20,14,08,12.30
2010,05,20,14,09,12.20
2010,05,20,14,10,12.20
2010,05,20,14,11,12.10
2010,05,20,14,12,12.10
2010,05,20,14,13,12.10
2010,05,20,14,14,12.00
2010,05,20,14,15,12.00
2010,05,20,14,16,12.00
2010,05,20,14,17,12.00
2010,05,20,14,18,12.00
2010,05,20,14,19,12.10
2010,05,20,14,20,12.10
2010,05,20,14,21,12.00
2010,05,20,14,22,11.90
2010,05,20,14,23,11.80
2010,05,20,14,24,11.90
2010,05,20,14,25,12.00
2010,05,20,14,26,12.10
2010,05,20,14,27,12.20
2010,05,20,14,28,12.10
2010,05,20,14,29,12.10
2010,05,20,14,30,12.00
2010,05,20,14,31,12.10
2010,05,20,14,32,12.00
2010,05,20,14,33,12.00
2010,05,20,14,34,12.00
2010,05,20,14,35,11.90
2010,05,20,14,36,12.00
2010,05,20,14,37,12.10
2010,05,20,14,38,12.20
2010,05,20,14,39,12.30
2010,05,20,14,40,12.30
2010,05,20,14,41,12.30
2010,05,20,14,42,12.40
2010,05,20,14,43,12.50
2010,05,20,14,44,12.40
2010,05,20,14,45,12.50
2010,05,20,14,46,12.60
2010,05,20,14,47,12.60
2010,05,20,14,48,12.60
2010,05,20,14,49,12.60
2010,05,20,14,50,12.50
2010,05,20,14,51,12.40
2010,05,20,14,52,12.30
2010,05,20,14,53,12.30
2010,05,20,14,54,12.30
2010,05,20,14,55,12.40
2010,05,20,14,56,12.40
2010,05,20,14,57,12.60
2010,05,20,14,58,12.70
2010,05,20,14,59,12.80
2010,05,20,15,00,12.80
2010,05,20,15,01,12.90
2010,05,20,15,02,13.00
2010,05,20,15,03,13.10
2010,05,20,15,04,13.20
2010,05,20,15,05,13.20
2010,05,20,15,06,13.10
2010,05,20,15,07,12.90
2010,05,20,15,08,12.80
2010,05,20,15,09,12.80
2010,05,20,15,10,12.80
2010,05,20,15,11,12.50
2010,05,20,15,12,12.30
2010,05,20,15,13,12.20
2010,05,20,15,14,12.20
2010,05,20,15,15,12.20
2010,05,20,15,16,12.30
2010,05,20,15,17,12.20
2010,05,20,15,18,12.30
2010,05,20,15,19,12.30
2010,05,20,15,20,12.30
2010,05,20,15,21,12.50
2010,05,20,15,22,12.50
2010,05,20,15,23,12.50
2010,05,20,15,24,12.70
2010,05,20,15,25,12.80
2010,05,20,15,26,12.90
2010,05,20,15,27,12.90
2010,05,20,15,28,12.80
2010,05,20,15,29,12.80
2010,05,20,15,30,12.80
2010,05,20,15,31,12.90
2010,05,20,15,32,12.80
2010,05,20,15,33,12.80
2010,05,20,15,34,12.80
2010,05,20,15,35,12.80
2010,05,20,15,36,12.80
2010,05,20,15,37,12.80
2010,05,20,15,38,12.70
2010,05,20,15,39,12.70
2010,05,20,15,40,12.70
2010,05,20,15,41,12.60
2010,05,20,15,42,12.50
2010,05,20,15,43,12.50
2010,05,20,15,44,12.30
2010,05,20,15,45,12.30
2010,05,20,15,46,12.30
2010,05,20,15,47,12.30
2010,05,20,15,48,12.30
2010,05,20,15,49,12.40
2010,05,20,15,50,12.50
2010,05,20,15,51,12.50
2010,05,20,15,52,12.60
2010,05,20,15,53,12.60
2010,05,20,15,54,12.70
2010,05,20,15,55,12.70
2010,05,20,15,56,12.60
2010,05,20,15,57,12.60
2010,05,20,15,58,12.50
2010,05,20,15,59,12.60
2010,05,20,16,00,12.60
2010,05,20,16,01,12.50
2010,05,20,16,02,12.50
2010,05,20,16,03,12.30
2010,05,20,16,04,12.30
2010,05,20,16,05,12.20
2010,05,20,16,06,12.10
2010,05,20,16,07,12.00
2010,05,20,16,08,11.90
2010,05,20,16,09,11.80
2010,05,20,16,10,11.80
2010,05,20,16,11,11.70
2010,05,20,16,12,11.60
2010,05,20,16,13,11.60
2010,05,20,16,14,11.50
2010,05,20,16,15,11.40
2010,05,20,16,16,11.50
2010,05,20,16,17,11.60
2010,05,20,16,18,11.70
2010,05,20,16,19,11.90
2010,05,20,16,20,12.00
2010,05,20,16,21,12.00
2010,05,20,16,22,12.10
2010,05,20,16,23,12.10
2010,05,20,16,24,12.10
2010,05,20,16,25,12.00
2010,05,20,16,26,12.10
2010,05,20,16,27,12.10
2010,05,20,16,28,12.10
2010,05,20,16,29,12.30
2010,05,20,16,30,12.30
2010,05,20,16,31,12.20
2010,05,20,16,32,12.20
2010,05,20,16,33,12.20
2010,05,20,16,34,12.30
2010,05,20,16,35,12.30
2010,05,20,16,36,12.30
2010,05,20,16,37,12.30
2010,05,20,16,38,12.30
2010,05,20,16,39,12.30
2010,05,20,16,40,12.30
2010,05,20,16,41,12.40
2010,05,20,16,42,12.50
2010,05,20,16,43,12.40
2010,05,20,16,44,12.50
2010,05,20,16,45,12.60
2010,05,20,16,46,12.60
2010,05,20,16,47,12.70
2010,05,20,16,48,12.80
2010,05,20,16,49,12.90
2010,05,20,16,50,12.90
2010,05,20,16,51,12.90
2010,05,20,16,52,12.80
2010,05,20,16,53,12.80
2010,05,20,16,54,12.60
2010,05,20,16,55,12.50
2010,05,20,16,56,12.50
2010,05,20,16,57,12.50
2010,05,20,16,58,12.50
2010,05,20,16,59,12.50
2010,05,20,17,00,12.50
2010,05,20,17,01,12.50
2010,05,20,17,02,12.40
2010,05,20,17,03,12.30
2010,05,20,17,04,12.30
2010,05,20,17,05,12.30
2010,05,20,17,06,12.30
2010,05,20,17,07,12.30
2010,05,20,17,08,12.30
2010,05,20,17,09,12.30
2010,05,20,17,10,12.30
2010,05,20,17,11,12.30
2010,05,20,17,12,12.10
2010,05,20,17,13,12.10
2010,05,20,17,14,12.00
2010,05,20,17,15,11.90
2010,05,20,17,16,12.00
2010,05,20,17,17,12.00
2010,05,20,17,18,12.10
2010,05,20,17,19,12.20
2010,05,20,17,20,12.10
2010,05,20,17,21,12.00
2010,05,20,17,22,12.00
2010,05,20,17,23,12.10
2010,05,20,17,24,12.10
2010,05,20,17,25,12.10
2010,05,20,17,26,12.20
2010,05,20,17,27,12.30
2010,05,20,17,28,12.30
2010,05,20,17,29,12.30
2010,05,20,17,30,12.20
2010,05,20,17,31,12.30
2010,05,20,17,32,12.30
2010,05,20,17,33,12.30
2010,05,20,17,34,12.20
2010,05,20,17,35,12.00
2010,05,20,17,36,12.00
2010,05,20,17,37,11.90
2010,05,20,17,38,11.80
2010,05,20,17,39,11.60
2010,05,20,17,40,11.60
2010,05,20,17,41,11.50
2010,05,20,17,42,11.40
2010,05,20,17,43,11.40
2010,05,20,17,44,11.40
2010,05,20,17,45,11.40
2010,05,20,17,46,11.40
2010,05,20,17,47,11.50
2010,05,20,17,48,11.60
2010,05,20,17,49,11.70
2010,05,20,17,50,11.70
2010,05,20,17,51,11.60
2010,05,20,17,52,11.60
2010,05,20,17,53,11.60
2010,05,20,17,54,11.40
2010,05,20,17,55,11.40
2010,05,20,17,56,11.30
2010,05,20,17,57,11.20
2010,05,20,17,58,11.00
2010,05,20,17,59,10.90
2010,05,20,18,00,10.80
2010,05,20,18,01,10.70
2010,05,20,18,02,10.60
2010,05,20,18,03,10.60
2010,05,20,18,04,10.50
2010,05,20,18,05,10.40
2010,05,20,18,06,10.40
2010,05,20,18,07,10.40
2010,05,20,18,08,10.40
2010,05,20,18,09,10.30
2010,05,20,18,10,10.30
2010,05,20,18,11,10.30
2010,05,20,18,12,10.30
2010,05,20,18,13,10.30
2010,05,20,18,14,10.20
2010,05,20,18,15,10.10
2010,05,20,18,16,10.10
2010,05,20,18,17,10.10
2010,05,20,18,18,10.10
2010,05,20,18,19,10.10
2010,05,20,18,20,10.10
2010,05,20,18,21,10.10
2010,05,20,18,22,10.10
2010,05,20,18,23,10.10
2010,05,20,18,24,10.10
2010,05,20,18,25,10.10
2010,05,20,18,26,10.10
2010,05,20,18,27,10.10
2010,05,20,18,28,10.10
2010,05,20,18,29,10.20
2010,05,20,18,30,10.20
2010,05,20,18,31,10.20
2010,05,20,18,32,10.30
2010,05,20,18,33,10.30
2010,05,20,18,34,10.40
2010,05,20,18,35,10.40
2010,05,20,18,36,10.40
2010,05,20,18,37,10.40
2010,05,20,18,38,10.40
2010,05,20,18,39,10.40
2010,05,20,18,40,10.30
2010,05,20,18,41,10.30
2010,05,20,18,42,10.30
2010,05,20,18,43,10.30
2010,05,20,18,44,10.30
2010,05,20,18,45,10.20
2010,05,20,18,46,10.20
2010,05,20,18,47,10.20
2010,05,20,18,48,10.20
2010,05,20,18,49,10.30
2010,05,20,18,50,10.30
2010,05,20,18,51,10.30
2010,05,20,18,52,10.30
2010,05,20,18,53,10.30
2010,05,20,18,54,10.40
2010,05,20,18,55,10.40
2010,05,20,18,56,10.30
2010,05,20,18,57,10.30
2010,05,20,18,58,10.30
2010,05,20,18,59,10.30
2010,05,20,19,00,10.30
2010,05,20,19,01,10.30
2010,05,20,19,02,10.30
2010,05,20,19,03,10.30
2010,05,20,19,04,10.30
2010,05,20,19,05,10.30
2010,05,20,19,06,10.30
2010,05,20,19,07,10.30
2010,05,20,19,08,10.30
2010,05,20,19,09,10.30
2010,05,20,19,10,10.30
2010,05,20,19,11,10.30
2010,05,20,19,12,10.30
2010,05,20,19,13,10.30
